Regional Weather Roundup
Issued by NWS

Home | Current Version | Previous Version | Text Only | Print | Product List | Glossary On
Versions: 1 2 3 4 5 6 7 8 9 10 11 12 13 14 15 16 17 18 19 20 21 22 23 24 25 26 27 28 29 30 31 32 33 34 35 36 37 38 39 40 41 42 43 44 45 46 47 48 49 50
000
ASUS43 KMKX 040211
RWRWI

WISCONSIN REGIONAL WEATHER ROUNDUP
NATIONAL WEATHER SERVICE MILWAUKEE/SULLIVAN WI
900 PM CDT TUE MAY 03 2016

NOTE: "FAIR" INDICATES FEW OR NO CLOUDS BELOW 12,000 FEET WITH NO
SIGNIFICANT WEATHER AND/OR OBSTRUCTIONS TO VISIBILITY.

WIZ001-002-006>008-014>016-023>028-040300-
NORTHWEST WISCONSIN

CITY           SKY/WX    TMP DP  RH WIND       PRES   REMARKS
SUPERIOR ARPT  CLEAR     57  33  39 N13G18    29.79R
ASHLAND        PTCLDY    51  36  56 N12       29.78R
HAYWARD        PTCLDY    57  30  35 N12       29.74R
SIREN          CLEAR     60  25  25 N9        29.75R
CUMBERLAND     CLEAR     55  28  35 N12       29.72R
RICE LAKE      CLEAR     58  31  36 N10       29.74R
CHETEK         CLEAR     57  44  62 NE6       29.72R
LADYSMITH      CLEAR     46  42  86 NE3       29.74R
EAU CLAIRE     CLOUDY    52  49  89 NE10      29.69R
MENOMONIE      CLEAR     59  42  53 NE7       29.69R
NEW RICHMOND   CLEAR     60  26  27 N10       29.72R
OSCEOLA        CLEAR     61  27  27 N7        29.75R
$$

WIZ003>005-009-010-017-018-040300-
NORTH CENTRAL WISCONSIN

CITY           SKY/WX    TMP DP  RH WIND       PRES   REMARKS
MANITOWISH WTR CLOUDY    44  40  84 CALM      29.72R
ARBOR VITAE    CLEAR     44  40  83 CALM      29.72R
WOODRUFF       CLEAR     44  40  83 CALM      29.72R
RHINELANDER    CLEAR     42  39  89 CALM      29.72R
EAGLE RIVER    FOG       42  41  99 CALM      29.71R VSB 1/2
LAND O LAKES   CLEAR     40  38  93 NW3       29.73R
PHILLIPS       CLEAR     44  41  88 CALM      29.71R
TOMAHAWK       FOG       43  41  95 CALM      29.72R VSB 1/4
MEDFORD        CLEAR     46  45  99 CALM      29.70F
MERRILL        CLOUDY    46  46 100 CALM      29.71S
$$

WIZ029-030-035-036-043>047-040300-
CENTRAL WISCONSIN

CITY           SKY/WX    TMP DP  RH WIND       PRES   REMARKS
WAUSAU         CLOUDY    48  45  89 CALM      29.69S
MOSINEE        PTCLDY    45  45 100 NE6       29.72R
MARSHFIELD     CLOUDY    49  46  90 NE6       29.70R
STEVENS POINT  MOCLDY    46  45  97 N5        29.72R
WAUPACA        LGT RAIN  52  47  85 E5        29.71F
WAUTOMA        HVY RAIN  50  47  89 N10G20    29.72R
WISC RAPIDS    MOCLDY    50  47  89 CALM      29.71R
CAMP DOUGLAS   MOCLDY    50  50 100 SE6       29.67F
$$

WIZ011>013-019>022-031-037>040-048>050-040300-
NORTHEAST WISCONSIN

CITY           SKY/WX    TMP DP  RH WIND       PRES   REMARKS
ANTIGO         CLOUDY    43  43 100 CALM      29.71R
SHAWANO        CLOUDY    51  44  76 E3        29.70F
OCONTO         CLOUDY    51  51 100 CALM      29.70R
STURGEON BAY   CLOUDY    50  45  81 E5        29.71R
GREEN BAY      RAIN      52  48  86 NW8       29.71R
MANITOWOC      LGT RAIN  51  46  83 MISG      29.69F
APPLETON       RAIN      52  46  82 N12       29.71R
CLINTONVILLE   CLOUDY    48  45  87 NE5       29.70F
OSHKOSH        RAIN      54  46  74 N25       29.70R
$$

WIZ032>034-041-042-053>061-040300-
SOUTHWEST WISCONSIN

CITY           SKY/WX    TMP DP  RH WIND       PRES   REMARKS
LA CROSSE      LGT RAIN  53  49  86 S9        29.65R
SPARTA         CLOUDY    50  48  95 S5        29.70S
VIROQUA        CLOUDY    60  40  47 S3        29.64F
BOSCOBEL       MOCLDY    62  39  42 S7        29.65F
PRAIRIE DU CHI PTCLDY    62  40  43 SW9       29.66F
PLATTEVILLE    CLOUDY    58  44  59 SW9       29.69F
$$

WIZ056-057-062-063-064-067-068-040300-
SOUTH CENTRAL WISCONSIN

CITY           SKY/WX    TMP DP  RH WIND       PRES   REMARKS
REEDSBURG      CLOUDY    61  40  45 N32       29.70R
BARABOO/DELLS  CLOUDY    60  36  40 N28G38    29.70R THUNDER
LONE ROCK      CLOUDY    59  39  47 CALM      29.65F
MINERAL POINT  CLOUDY    61  37  41 SW9       29.68F
MADISON        CLOUDY    61  38  42 SW6       29.66F
MIDDLETON      MOCLDY    61  39  44 SW9       29.67F
WATERTOWN      CLOUDY    60  42  52 SW8       29.67F
MONROE         CLOUDY    59  39  47 SW14      29.70F
JANESVILLE     CLOUDY    61  41  48 SW9       29.70F
$$

WIZ051-052-058>065-066-070>072-040300-
SOUTHEAST WISCONSIN

CITY           SKY/WX    TMP DP  RH WIND       PRES   REMARKS
MILWAUKEE      CLOUDY    62  39  42 SW10      29.69F
WAUKESHA       PTCLDY    59  37  44 SW8       29.70F
MILWAUKEE/TIMM CLOUDY    63  34  34 SW7       29.69F
RACINE         CLOUDY    61  39  44 SW8       29.72F
BURLINGTON     CLOUDY    58  40  49 SW8       29.71F
KENOSHA        CLOUDY    60  40  47 SW12      29.71F
FOND DU LAC    CLOUDY    55  47  74 S7        29.65F
SHEBOYGAN      LGT RAIN  53  46  77 SW5       29.68F
WEST BEND      LGT RAIN  55  43  62 NW10      29.69R
JUNEAU         CLOUDY    58  41  53 CALM      29.67F
$$

LSZ147-162-040300-
LAKE SUPERIOR

STATION/POSITION TIME  TEMP    WIND        PRES    WAVE
                       AIR SEA DIR/SP/G            HT/PER
                 (UTC) (F)     (DEG/KT/KT) (MB)    (FT/S)
W MID LAKE BUOY  0150   40 37  360/ 10/ 12 1008.8R   1
DEVILS ISLAND    0200   47      10/ 21/ 23 1009.2R
SAXON HARBOR     0100   51      CALM  /  1 1006.4
$$

LMZ867-665-643>646-040300-
LAKE MICHIGAN

STATION/POSITION TIME  TEMP    WIND        PRES    WAVE
                       AIR SEA DIR/SP/G            HT/PER
                 (UTC) (F)     (DEG/KT/KT) (MB)    (FT/S)
CHAMBERS ISLAND  0100   48      CALM  /  4 1005.1
N MID LAKE BUOY  0150   42 39  140/  6/  8 1005.1F   2/ 5
NORTHPORT PIER   0100   49     170/  2/ 19 1005.1F
ALGOMA LAKESHORE 0115           80/  9/  9   N/A
KEWAUNEE LAKESHO 0100   48                 1005.5R
SHEBOYGAN LAKESH 0200   58     240/  4/  5 1005.5F
PORT WASHINGTON  0100   65     240/  8/ 11 1005.8F
S MID LAKE BUOY  0150   46 41  180/ 12/ 12 1006.1F   1/ 3
KENOSHA   LAKESH 0200   63     240/  9/ 16 1006.1F
$$

TC  - TEMPERATURE IN CELSIUS
VSB - VISIBILITY IN STATUTE MILES
WCI - WIND CHILL INDEX
HX  - HEAT INDEX




USA.gov is the U.S. government's official web portal to all federal, state and local government web resources and services.